• în Republica Moldova
  • Lista ţărilor
  • Pe 7 zile
  • Temperatura apei
  • Hartă satelitară
  • Meteo pe hartă
  • Widget-uri
  • user-avatar
    Intrare

    Meteo pe oră la Lezhe

    Astăzi, 24 Martie, Vineri

    Timp Temperatura Precipitaţii Vânt Presiune Umiditate
    00:00 +11°C° 0 mm 0 m/s 740 mmHg 81%
    01:00 +11°C° 0 mm 0 m/s 740 mmHg 79%
    02:00 +10°C° 0 mm 0 m/s 740 mmHg 79%
    03:00 +10°C° 0 mm 0 m/s 740 mmHg 79%
    04:00 +10°C° 0 mm 0 m/s 740 mmHg 78%
    05:00 +11°C° 0 mm 0 m/s 740 mmHg 75%
    06:00 +13°C° 0 mm 1 m/s 740 mmHg 71%
    07:00 +16°C° 0 mm 1 m/s 741 mmHg 66%
    08:00 +19°C° 0 mm 1 m/s 741 mmHg 59%
    09:00 +21°C° 0 mm 1 m/s 741 mmHg 52%
    10:00 +23°C° 0 mm 1 m/s 741 mmHg 44%
    11:00 +24°C° 0 mm 1 m/s 741 mmHg 42%
    12:00 +24°C° 0 mm 1 m/s 741 mmHg 41%
    13:00 +25°C° 0 mm 2 m/s 741 mmHg 39%
    14:00 +24°C° 0 mm 2 m/s 741 mmHg 42%
    15:00 +24°C° 0 mm 2 m/s 740 mmHg 45%
    16:00 +23°C° 0 mm 2 m/s 740 mmHg 48%
    17:00 +20°C° 0 mm 2 m/s 740 mmHg 54%
    18:00 +17°C° 0 mm 2 m/s 740 mmHg 61%
    19:00 +15°C° 0 mm 2 m/s 740 mmHg 67%
    20:00 +15°C° 0 mm 1 m/s 740 mmHg 66%
    21:00 +15°C° 0 mm 1 m/s 740 mmHg 65%
    22:00 +14°C° 0 mm 1 m/s 741 mmHg 64%
    23:00 +14°C° 0 mm 1 m/s 741 mmHg 66%

    Mâine, 25 Martie, Sâmbătă

    Timp Temperatura Precipitaţii Vânt Presiune Umiditate
    00:00 +14°C° 0 mm 1 m/s 741 mmHg 68%
    01:00 +14°C° 0 mm 1 m/s 741 mmHg 70%
    02:00 +13°C° 0 mm 1 m/s 741 mmHg 72%
    03:00 +13°C° 0 mm 1 m/s 741 mmHg 74%
    04:00 +13°C° 0 mm 1 m/s 741 mmHg 76%
    05:00 +14°C° 0 mm 1 m/s 741 mmHg 77%
    06:00 +15°C° 0 mm 1 m/s 741 mmHg 77%
    07:00 +15°C° 0 mm 1 m/s 741 mmHg 77%
    08:00 +18°C° 0 mm 1 m/s 741 mmHg 69%
    09:00 +20°C° 0 mm 1 m/s 741 mmHg 62%
    10:00 +23°C° 0 mm 1 m/s 741 mmHg 54%
    11:00 +23°C° 0,1 mm 1 m/s 741 mmHg 53%
    12:00 +23°C° 0,1 mm 2 m/s 741 mmHg 51%
    13:00 +24°C° 0,1 mm 2 m/s 741 mmHg 50%
    14:00 +23°C° 0,2 mm 2 m/s 740 mmHg 53%
    15:00 +21°C° 0,2 mm 2 m/s 740 mmHg 56%
    16:00 +20°C° 0,2 mm 2 m/s 739 mmHg 59%
    17:00 +18°C° 0,1 mm 2 m/s 739 mmHg 68%
    18:00 +16°C° 0,1 mm 1 m/s 739 mmHg 77%
    19:00 +14°C° 0,1 mm 1 m/s 740 mmHg 86%
    20:00 +14°C° 0 mm 1 m/s 740 mmHg 87%
    21:00 +13°C° 0 mm 1 m/s 740 mmHg 88%
    22:00 +12°C° 0 mm 0 m/s 740 mmHg 89%
    23:00 +12°C° 0 mm 1 m/s 739 mmHg 90%

    Poimâine, 26 Martie, Duminică

    Timp Temperatura Precipitaţii Vânt Presiune Umiditate
    00:00 +12°C° 0 mm 1 m/s 739 mmHg 91%
    01:00 +11°C° 0 mm 1 m/s 739 mmHg 92%
    02:00 +11°C° 0 mm 1 m/s 739 mmHg 93%
    03:00 +11°C° 0 mm 1 m/s 738 mmHg 93%
    04:00 +10°C° 0 mm 1 m/s 738 mmHg 93%
    05:00 +11°C° 0 mm 1 m/s 738 mmHg 89%
    06:00 +12°C° 0 mm 1 m/s 738 mmHg 85%
    07:00 +13°C° 0 mm 1 m/s 738 mmHg 82%
    08:00 +15°C° 0 mm 1 m/s 737 mmHg 74%
    09:00 +16°C° 0 mm 2 m/s 737 mmHg 66%
    10:00 +18°C° 0 mm 2 m/s 737 mmHg 58%
    11:00 +18°C° 0,1 mm 2 m/s 737 mmHg 60%
    12:00 +18°C° 0,1 mm 2 m/s 736 mmHg 62%
    13:00 +18°C° 0,1 mm 3 m/s 736 mmHg 64%
    14:00 +18°C° 0,2 mm 3 m/s 735 mmHg 66%
    15:00 +17°C° 0,2 mm 3 m/s 735 mmHg 68%
    16:00 +17°C° 0,2 mm 3 m/s 735 mmHg 71%
    17:00 +14°C° 0,5 mm 3 m/s 735 mmHg 78%
    18:00 +14°C° 0,5 mm 2 m/s 735 mmHg 85%
    19:00 +12°C° 0,5 mm 2 m/s 736 mmHg 93%
    20:00 +12°C° 1,1 mm 2 m/s 736 mmHg 92%
    21:00 +10°C° 1,1 mm 2 m/s 736 mmHg 92%
    22:00 +10°C° 1,1 mm 3 m/s 737 mmHg 91%
    23:00 +9°C° 0,4 mm 3 m/s 737 mmHg 89%

    27 Martie, Luni

    Timp Temperatura Precipitaţii Vânt Presiune Umiditate
    00:00 +8°C° 0,4 mm 4 m/s 737 mmHg 87%
    01:00 +7°C° 0,4 mm 4 m/s 737 mmHg 86%
    02:00 +7°C° 0,2 mm 5 m/s 737 mmHg 84%
    03:00 +6°C° 0,2 mm 5 m/s 737 mmHg 83%
    04:00 +5°C° 0,2 mm 5 m/s 737 mmHg 82%
    05:00 +5°C° 0,2 mm 5 m/s 737 mmHg 81%
    06:00 +5°C° 0,2 mm 5 m/s 737 mmHg 80%
    07:00 +5°C° 0,2 mm 5 m/s 738 mmHg 79%
    08:00 +6°C° 0,1 mm 5 m/s 738 mmHg 76%
    09:00 +7°C° 0,1 mm 5 m/s 738 mmHg 72%
    10:00 +8°C° 0,1 mm 5 m/s 738 mmHg 69%
    11:00 +8°C° 0,1 mm 4 m/s 738 mmHg 67%
    12:00 +10°C° 0,1 mm 4 m/s 738 mmHg 65%
    13:00 +11°C° 0,1 mm 4 m/s 738 mmHg 64%
    14:00 +11°C° 0 mm 4 m/s 738 mmHg 64%
    15:00 +11°C° 0 mm 4 m/s 738 mmHg 65%
    16:00 +11°C° 0 mm 4 m/s 737 mmHg 66%
    17:00 +10°C° 0 mm 4 m/s 738 mmHg 70%
    18:00 +8°C° 0 mm 4 m/s 738 mmHg 74%
    19:00 +7°C° 0 mm 4 m/s 739 mmHg 78%
    20:00 +6°C° 0 mm 4 m/s 739 mmHg 78%
    21:00 +6°C° 0 mm 4 m/s 739 mmHg 79%
    22:00 +6°C° 0 mm 4 m/s 740 mmHg 79%
    23:00 +6°C° 0 mm 4 m/s 740 mmHg 79%

    28 Martie, Marţi

    Timp Temperatura Precipitaţii Vânt Presiune Umiditate
    00:00 +5°C° 0 mm 4 m/s 740 mmHg 79%
    01:00 +5°C° 0 mm 4 m/s 741 mmHg 80%
    02:00 +5°C° 0 mm 4 m/s 741 mmHg 80%
    03:00 +5°C° 0 mm 4 m/s 741 mmHg 80%
    04:00 +5°C° 0 mm 4 m/s 741 mmHg 80%
    05:00 +5°C° 0 mm 4 m/s 741 mmHg 78%
    06:00 +6°C° 0 mm 4 m/s 742 mmHg 76%
    07:00 +6°C° 0 mm 4 m/s 742 mmHg 74%
    08:00 +8°C° 0 mm 4 m/s 742 mmHg 67%
    09:00 +11°C° 0 mm 4 m/s 742 mmHg 61%
    10:00 +12°C° 0 mm 4 m/s 743 mmHg 54%
    11:00 +13°C° 0 mm 3 m/s 742 mmHg 51%
    12:00 +14°C° 0 mm 3 m/s 742 mmHg 48%
    13:00 +16°C° 0 mm 3 m/s 742 mmHg 45%
    14:00 +16°C° 0 mm 3 m/s 742 mmHg 46%
    15:00 +16°C° 0 mm 3 m/s 742 mmHg 48%
    16:00 +16°C° 0 mm 3 m/s 741 mmHg 49%
    17:00 +13°C° 0 mm 3 m/s 742 mmHg 56%
    18:00 +11°C° 0 mm 3 m/s 742 mmHg 63%
    19:00 +9°C° 0 mm 3 m/s 743 mmHg 70%
    20:00 +8°C° 0 mm 3 m/s 743 mmHg 71%
    21:00 +8°C° 0 mm 3 m/s 743 mmHg 72%
    22:00 +7°C° 0 mm 3 m/s 744 mmHg 72%
    23:00 +7°C° 0 mm 3 m/s 744 mmHg 73%

    29 Martie, Miercuri

    Timp Temperatura Precipitaţii Vânt Presiune Umiditate
    00:00 +7°C° 0 mm 3 m/s 744 mmHg 73%
    01:00 +7°C° 0 mm 3 m/s 744 mmHg 74%
    02:00 +5°C° 0 mm 3 m/s 744 mmHg 74%
    03:00 +5°C° 0 mm 3 m/s 744 mmHg 74%
    04:00 +5°C° 0 mm 3 m/s 744 mmHg 74%
    05:00 +7°C° 0 mm 3 m/s 744 mmHg 72%
    06:00 +8°C° 0 mm 2 m/s 744 mmHg 70%
    07:00 +9°C° 0 mm 2 m/s 744 mmHg 68%
    08:00 +12°C° 0 mm 2 m/s 744 mmHg 61%
    09:00 +15°C° 0 mm 2 m/s 744 mmHg 53%
    10:00 +17°C° 0 mm 2 m/s 744 mmHg 46%
    11:00 +18°C° 0 mm 2 m/s 744 mmHg 44%
    12:00 +19°C° 0 mm 2 m/s 743 mmHg 42%
    13:00 +20°C° 0 mm 3 m/s 743 mmHg 39%
    14:00 +20°C° 0 mm 3 m/s 743 mmHg 42%
    15:00 +19°C° 0 mm 3 m/s 743 mmHg 44%
    16:00 +19°C° 0 mm 3 m/s 743 mmHg 47%
    17:00 +16°C° 0 mm 3 m/s 743 mmHg 54%
    18:00 +13°C° 0 mm 3 m/s 743 mmHg 61%
    19:00 +11°C° 0 mm 3 m/s 743 mmHg 69%
    20:00 +11°C° 0 mm 3 m/s 743 mmHg 69%
    21:00 +10°C° 0 mm 3 m/s 743 mmHg 69%
    22:00 +10°C° 0 mm 3 m/s 744 mmHg 69%
    23:00 +9°C° 0 mm 2 m/s 744 mmHg 70%
    Arată mai mult